Location: Newark
(34.9500°N, 139.9667°E)
Time: 16:45:00
(UTC+00:00)

Vanguard 1 Rocket - Pass Details

Date: 12 December 2019
Orbit: 650 x 4226 km, 34.3° (Epoch: 20 January)

Event Time Altitude Azimuth Distance (km) Brightness Sun altitude
Rises 17:10:25 0° 282° (WNW) 4,661 - -54.0°
Reaches altitude 10° 17:14:38 10° 271° (W) 3,142 - -53.2°
Maximum altitude 17:20:16 26° 218° (SW) 1,655 - -52.0°
Drops below altitude 10° 17:24:18 10° 161° (SSE) 2,185 - -51.2°
Sets 17:26:41 0° 146° (SSE) 2,986 - -50.7°
